Home   Weather   Sendai   Past weeks
Flag for Japan

Past Weather in Sendai, Japan — Yesterday and Last 2 Weeks

Now
50 °F

Passing clouds.


Feels Like: 46 °F
Forecast: 56 / 40 °F
Wind: 9 mph from West

Location: Sendai Airport

Current Time: Mar 26, 2019 at 7:37:37 pm

Latest Report: Mar 26, 2019 at 7:00 pm


Visibility: N/A

Pressure: 29.74 "Hg

Humidity: 62%

Dew Point: 37 °F

Location of SendaiLocation

Past Weather in Sendai — Graph

°F

Sendai Temperature Yesterday

Maximum temperature yesterday: 59 °F (at 1:18 pm)
Minimum temperature yesterday: 25 °F (at 6:00 am)
Average temperature yesterday: 50 °F

High & Low Weather Summary for the Past Weeks

 TemperatureHumidityPressure
High63 °F (Mar 21, 9:00 pm)93% (Mar 13, 6:00 am)30.24 "Hg (Mar 13, 6:00 am)
Low25 °F (Mar 25, 6:00 am)21% (Mar 24, 2:00 pm)29.27 "Hg (Mar 11, 6:00 pm)
Average47 °F56%29.88 "Hg
* Reported Mar 11 6:00 pm — Mar 26 6:00 pm, Sendai. Weather by CustomWeather, © 2019

Note: Actual official high and low records may vary slightly from our data, if they occured in-between our weather recording intervals... More about our weather records

Advertising

Sendai Weather History for the Previous 24 Hours

Scroll right to see more
 ConditionsComfort  
Time TempWeatherWind HumidityBarometerVisibility
6:00 pm
Tue, Mar 26
57 °FPartly cloudy.15 mph31%29.71 "HgN/A
5:02 pm59 °FPartly sunny.12 mph29%29.68 "HgN/A
5:00 pm57 °FPartly sunny.5 mph33%29.68 "HgN/A
4:00 pm55 °FBroken clouds.5 mph55%29.71 "HgN/A
3:00 pm55 °FBroken clouds.9 mph55%29.71 "HgN/A
2:00 pm54 °FPartly sunny.8 mph63%29.74 "HgN/A
1:00 pm57 °FPartly sunny.13 mph51%29.77 "HgN/A
12:00 pm57 °FPartly sunny.16 mph39%29.77 "HgN/A
11:00 am55 °FPartly sunny.13 mph51%29.83 "HgN/A
10:00 am55 °FPartly sunny.13 mph51%29.86 "HgN/A
9:00 am55 °FSunny.12 mph47%29.89 "Hg10 mi
8:00 am52 °FSunny.12 mph50%29.89 "Hg10 mi
7:00 am48 °FPartly sunny.6 mph62%29.92 "HgN/A
6:00 am43 °FPartly sunny.3 mph76%29.92 "HgN/A
5:30 am41 °FPassing clouds.2 mph70%29.92 "HgN/A
9:00 pm
Mon, Mar 25
48 °FPassing clouds.5 mph50%29.95 "HgN/A
8:00 pm50 °FPassing clouds.5 mph43%29.95 "HgN/A
7:00 pm52 °FPassing clouds.5 mph44%29.95 "HgN/A
Weather by CustomWeather, © 2019

See weather overview